[[{"header":{"parameterUnit":"m.s-1","parameterCategory":1,"la1":30.2991,"la2":30.254,"lo1":-89.0895,"lo2":-89.0444,"dy":0.0017,"dx":0.0017,"nx":28,"ny":28,"refTime":"2024-04-24T03:00:00:Z","depth":0,"parameterNumber":2,"parameterNumberName":"U-component_of_WINDS"},"data":[0,0,0,0,0,0,0,0,0,0,0,0,0,0,0,0,0,0,0,0,0,0,0,0,0,0,0,0,0,0,0,0,0,0,0,0,0,0,0,0,0,0,0,0,0,0,0,0,0,0,0,0,0,0,0,0,0,0,0.4267,0.4267,0,0.4257,0.4257,0.4257,0.4239,0.4238,0.4238,0.4238,0.4226,0.4226,0.4226,0,0,0,0,0,0,0,0,0,0,0,0,0,0.4269,0.4269,0.4267,0.4267,0.4267,0.4257,0.4257,0.4257,0.4239,0.4238,0.4238,0.4237,0.4226,0.4226,0.4226,0,0,0,0,0,0,0,0,0,0,0,0,0,0.4265,0.4269,0.4267,0.4257,0.4256,0.4257,0.4257,0.4257,0.4239,0.4238,0.4238,0.4237,0.4226,0.4226,0.4226,0.4236,0,0,0.4226,0.4226,0,0,0,0,0,0,0,0,0.4265,0.4265,0.4258,0.4258,0.4256,0.4249,0.4253,0.425,0.4239,0.4245,0.4238,0.4237,0.4234,0.4233,0.4232,0.4236,0.4235,0.4226,0.4226,0.4226,0.4226,0,0,0,0,0,0,0,0.4265,0.4265,0.4263,0.4258,0.4257,0.4252,0.4251,0.4252,0.4242,0.4245,0.4243,0.4242,0.4233,0.4232,0.4232,0.4235,0.4226,0.4226,0.4226,0.4226,0.4244,0.4244,0,0,0,0,0,0,0.4267,0.4265,0.4263,0.4263,0.426,0.4252,0.4251,0.4252,0.4242,0.4241,0.4243,0.4242,0.4233,0.4232,0.4231,0.4241,0.4226,0.4226,0.4226,0.4244,0.4244,0.4245,0,0,0,0,0,0,0.4267,0.4267,0.4264,0.4264,0.4263,0.4253,0.4254,0.4252,0.4251,0.4241,0.4239,0.4244,0.4232,0.4231,0.4235,0.4241,0.4226,0.4226,0.4243,0.4244,0.4244,0.4262,0,0,0,0,0,0,0.4268,0.4268,0.4272,0.4264,0.4263,0.4268,0.4254,0.4252,0.4251,0.4249,0.4242,0.424,0.4232,0.4235,0.4235,0.424,0.4226,0.4242,0.4243,0.4244,0.4261,0.4263,0.4265,0,0,0,0,0,0.4268,0.4277,0.4272,0.4272,0.4268,0.4268,0.4268,0.4259,0.4252,0.4255,0.4249,0.424,0.424,0.4235,0.4235,0.4241,0.4242,0.4243,0.4244,0.426,0.4262,0.4265,0,0,0,0,0,0,0.4286,0.4276,0.427,0.4278,0.4274,0.4265,0.427,0.4262,0.426,0.4259,0.4247,0.4245,0.425,0.4246,0.4241,0.4249,0.424,0.4241,0.4251,0.4254,0.4256,0.4257,0.4226,0,0,0,0,0,0.4291,0.4293,0.4284,0.4291,0.429,0.428,0.428,0.4273,0.4269,0.4267,0.4261,0.4256,0.4255,0.4255,0.4253,0.426,0.4257,0.4264,0.4266,0.4268,0.4269,0.427,0.4272,0.4248,0.4248,0.4248,0,0,0.4302,0.4296,0.4298,0.4295,0.4291,0.4292,0.4279,0.4281,0.4281,0.4267,0.4269,0.4265,0.4259,0.4264,0.4265,0.426,0.4275,0.4269,0.4271,0.427,0.4271,0.4274,0.4276,0.4249,0.4249,0.4249,0,0,0.432,0.4317,0.4322,0.4318,0.4313,0.4306,0.4308,0.43,0.4296,0.4298,0.4287,0.4287,0.4286,0.4282,0.4279,0.4295,0.4286,0.4295,0.4306,0.4308,0.431,0.4311,0.4315,0.4317,0.4296,0.4296,0.4296,0,0.4334,0.4335,0.4326,0.4328,0.4326,0.4313,0.4317,0.4314,0.4308,0.4307,0.4302,0.4299,0.4294,0.4297,0.43,0.43,0.4299,0.4295,0.431,0.4312,0.4313,0.4317,0.4318,0.4297,0.4297,0.4297,0.4297,0,0.4351,0.4352,0.4356,0.435,0.4349,0.4353,0.4343,0.4343,0.4336,0.4329,0.4331,0.4325,0.4321,0.4321,0.4315,0.4323,0.4319,0.4312,0.4302,0.4316,0.432,0.4321,0.4298,0.4298,0.4298,0.4297,0,0,0.4381,0.4369,0.4371,0.4367,0.436,0.436,0.4362,0.4358,0.4358,0.4354,0.4354,0.4353,0.4346,0.4343,0.4336,0.4338,0.4349,0.433,0.433,0.4333,0.4355,0.4359,0.4361,0.4343,0.4344,0.4344,0.4355,0,0.4396,0.44,0.4391,0.4395,0.4395,0.4383,0.4384,0.4379,0.4373,0.4372,0.4365,0.4364,0.4355,0.4353,0.4355,0.4347,0.4353,0.4346,0.4342,0.4342,0.4343,0.4363,0.4368,0.4379,0.4356,0.4357,0.4357,0,0.4416,0.4412,0.4417,0.4408,0.4407,0.4409,0.4404,0.4403,0.4397,0.4392,0.4389,0.438,0.4381,0.4372,0.4371,0.4367,0.4365,0.4361,0.4361,0.4359,0.435,0.4361,0.4383,0.4384,0.4359,0.4359,0.4359,0,0.4435,0.4432,0.4434,0.4431,0.4421,0.4422,0.4418,0.4411,0.4409,0.4405,0.4403,0.4399,0.4396,0.4393,0.4383,0.4378,0.4383,0.4374,0.4378,0.4378,0.4379,0.4379,0.4399,0.438,0.438,0.438,0.438,0,0.4452,0.4455,0.4442,0.4443,0.4446,0.4435,0.4438,0.4432,0.4426,0.4425,0.4415,0.4414,0.4401,0.4399,0.4391,0.4391,0.439,0.4386,0.4384,0.4386,0.4386,0.4384,0.4382,0.438,0.438,0.438,0.438,0,0.4474,0.4465,0.4466,0.4456,0.4454,0.4456,0.4447,0.4447,0.444,0.4439,0.4438,0.4428,0.4424,0.4414,0.4408,0.4403,0.4405,0.4401,0.4407,0.4405,0.4409,0.4409,0.4428,0.4429,0.441,0.441,0.441,0,0.4485,0.4487,0.4477,0.4476,0.4472,0.447,0.4468,0.4457,0.4455,0.4447,0.4448,0.4444,0.444,0.4435,0.4426,0.4421,0.4416,0.4423,0.4415,0.4418,0.4415,0.4414,0.4414,0.4425,0.4425,0.4425,0.4426,0,0.4505,0.4501,0.4498,0.4493,0.4491,0.4487,0.4482,0.4481,0.4469,0.4467,0.4464,0.446,0.4454,0.4449,0.4443,0.4438,0.4429,0.4428,0.4429,0.4431,0.4433,0.4431,0.441,0.4428,0.4427,0.4427,0.4427,0.4427,0.4521,0.4521,0.4514,0.4511,0.4506,0.4502,0.4501,0.4494,0.4491,0.4485,0.4479,0.4475,0.4468,0.4458,0.4454,0.445,0.4446,0.4447,0.4447,0.4447,0.4448,0.4435,0.4449,0.4449,0.4449,0.4449,0.4449,0,0.4539,0.4534,0.4531,0.4525,0.4522,0.4515,0.4509,0.4507,0.4504,0.4498,0.4494,0.4489,0.4484,0.4475,0.4469,0.4468,0.4464,0.4467,0.4466,0.4465,0.4453,0.4452,0.447,0.447,0.447,0.447,0.447,0.447,0.4548,0.4548,0.4543,0.454,0.4534,0.4531,0.4528,0.4524,0.4518,0.4513,0.4509,0.4504,0.4496,0.4489,0.4484,0.4481,0.4479,0.4483,0.4479,0.4468,0.4466,0.4464,0.4463,0.4483,0.4483,0.4491,0.4491,0.4491]},{"header":{"parameterUnit":"m.s-1","parameterCategory":1,"la1":30.2991,"la2":30.254,"lo1":-89.0895,"lo2":-89.0444,"dy":0.0017,"dx":0.0017,"nx":28,"ny":28,"refTime":"2024-04-24T03:00:00:Z","depth":0,"parameterNumber":3,"parameterNumberName":"V-component_of_WINDS"},"data":[0,0,0,0,0,0,0,0,0,0,0,0,0,0,0,0,0,0,0,0,0,0,0,0,0,0,0,0,0,0,0,0,0,0,0,0,0,0,0,0,0,0,0,0,0,0,0,0,0,0,0,0,0,0,0,0,0,0,0.9346,0.9346,0,0.9373,0.9373,0.9374,0.9349,0.9348,0.9347,0.9346,0.9373,0.9375,0.9377,0,0,0,0,0,0,0,0,0,0,0,0,0,0.9271,0.9272,0.9346,0.9346,0.9347,0.9373,0.9373,0.9374,0.9349,0.9348,0.9347,0.9346,0.9373,0.9375,0.9377,0,0,0,0,0,0,0,0,0,0,0,0,0,0.9301,0.9273,0.9346,0.9338,0.9337,0.9373,0.9373,0.9374,0.9349,0.9348,0.9346,0.9345,0.9372,0.9375,0.9377,0.9422,0,0,0.9385,0.9386,0,0,0,0,0,0,0,0,0.93,0.9304,0.9338,0.9338,0.9338,0.9356,0.9357,0.939,0.935,0.9345,0.9346,0.9344,0.9369,0.9371,0.938,0.9423,0.9425,0.9385,0.9386,0.9387,0.9388,0,0,0,0,0,0,0,0.9297,0.9303,0.9357,0.9339,0.9339,0.9332,0.9334,0.9363,0.9365,0.9345,0.9343,0.9347,0.9368,0.9377,0.938,0.9425,0.9385,0.9387,0.9388,0.9389,0.9504,0.9506,0,0,0,0,0,0,0.9296,0.9301,0.9356,0.9357,0.9315,0.9334,0.9337,0.9352,0.9364,0.9365,0.9348,0.9346,0.9374,0.9377,0.9381,0.9433,0.9387,0.939,0.9391,0.9503,0.9505,0.9506,0,0,0,0,0,0,0.9295,0.9302,0.9355,0.9329,0.9335,0.9337,0.9354,0.9353,0.9362,0.9367,0.9367,0.9357,0.9373,0.9378,0.9412,0.9434,0.9391,0.9393,0.9501,0.9503,0.9505,0.9538,0,0,0,0,0,0,0.9293,0.9301,0.9319,0.9329,0.9337,0.9386,0.9355,0.9355,0.9367,0.9364,0.9375,0.9376,0.9372,0.9408,0.9414,0.9436,0.9395,0.9499,0.9502,0.9505,0.9535,0.9541,0.9547,0,0,0,0,0,0.929,0.9328,0.932,0.9327,0.9359,0.9387,0.9391,0.9386,0.9369,0.9386,0.9388,0.9375,0.943,0.9412,0.9418,0.9442,0.9497,0.9501,0.9505,0.9533,0.954,0.9547,0,0,0,0,0,0,0.9321,0.9329,0.9321,0.9363,0.9374,0.9383,0.9405,0.9394,0.9411,0.9408,0.94,0.9403,0.9439,0.9444,0.9423,0.9485,0.9461,0.9466,0.948,0.9487,0.9493,0.9491,0.9397,0,0,0,0,0,0.9332,0.9354,0.936,0.9397,0.9403,0.9403,0.9415,0.941,0.9421,0.9426,0.9431,0.9443,0.9462,0.9475,0.9494,0.9536,0.9537,0.9555,0.9561,0.9565,0.9569,0.959,0.9597,0.9518,0.9518,0.9518,0,0,0.9356,0.9364,0.9378,0.9403,0.9411,0.9433,0.9407,0.9433,0.9448,0.943,0.9462,0.9466,0.9478,0.9515,0.9532,0.9521,0.9592,0.957,0.9574,0.9575,0.9594,0.9602,0.9608,0.952,0.952,0.9519,0,0,0.9411,0.942,0.945,0.9458,0.9471,0.947,0.9477,0.9487,0.9488,0.952,0.9506,0.9525,0.9559,0.9568,0.9576,0.9632,0.962,0.9638,0.9668,0.9688,0.9694,0.97,0.9718,0.9724,0.9642,0.9643,0.9643,0,0.944,0.9473,0.9467,0.9492,0.9503,0.9486,0.9516,0.9524,0.9542,0.9549,0.9536,0.9577,0.9584,0.9622,0.9636,0.9644,0.9651,0.9637,0.9694,0.9699,0.9704,0.9721,0.9728,0.9645,0.9644,0.9644,0.9644,0,0.9506,0.9529,0.9552,0.9568,0.9582,0.9609,0.9606,0.962,0.9613,0.9613,0.9645,0.9653,0.9671,0.968,0.9674,0.9717,0.9709,0.9695,0.9671,0.9714,0.973,0.9736,0.9647,0.9647,0.9646,0.9646,0,0,0.9582,0.9593,0.9601,0.9608,0.9619,0.9636,0.9662,0.968,0.9691,0.9704,0.9724,0.9753,0.9739,0.9749,0.9744,0.9761,0.9802,0.9745,0.9745,0.9754,0.9847,0.9857,0.9864,0.9795,0.9796,0.9797,0.9846,0,0.9636,0.968,0.9674,0.9717,0.9737,0.9721,0.9743,0.9752,0.9752,0.9769,0.9769,0.9789,0.977,0.9776,0.9793,0.9794,0.9821,0.979,0.9812,0.9813,0.9808,0.9873,0.9884,0.9929,0.9852,0.9853,0.9854,0,0.9705,0.9718,0.9763,0.9769,0.9777,0.9797,0.9811,0.9828,0.9837,0.9836,0.9846,0.9837,0.9861,0.9837,0.987,0.9849,0.9858,0.986,0.9861,0.9862,0.9835,0.9874,0.9944,0.995,0.9864,0.9863,0.9862,0,0.9753,0.9783,0.9812,0.9818,0.9827,0.9841,0.9845,0.9852,0.9863,0.9875,0.9881,0.9897,0.9905,0.9917,0.9912,0.9895,0.9945,0.9921,0.9943,0.9944,0.9954,0.9953,1.0025,0.9962,0.9962,0.9962,0.9962,0,0.9813,0.984,0.9834,0.9852,0.9881,0.9874,0.9903,0.9905,0.9911,0.9929,0.9916,0.9932,0.9925,0.9941,0.9937,0.9964,0.9968,0.9967,0.9965,0.9967,0.9967,0.9972,0.9968,0.9964,0.9963,0.9963,0.9963,0,0.9872,0.9869,0.99,0.9904,0.9906,0.9927,0.9931,0.9947,0.9946,0.9968,0.9973,0.9971,0.9989,0.9985,1.0005,1.0002,1.0035,1.003,1.0031,1.003,1.0052,1.0049,1.0128,1.0137,1.007,1.007,1.0071,0,0.991,0.993,0.9936,0.9947,0.9951,0.9969,0.9979,0.9971,0.9982,0.9992,1.0007,1.0024,1.0036,1.0065,1.0065,1.008,1.0074,1.0101,1.0076,1.0077,1.0072,1.0071,1.0072,1.0105,1.0106,1.0107,1.0107,0,0.9977,0.9973,0.9988,1.0002,1.0013,1.0024,1.0033,1.0042,1.0036,1.0048,1.0065,1.0075,1.0094,1.011,1.0123,1.0127,1.0115,1.0115,1.012,1.0122,1.0121,1.012,1.0043,1.0113,1.0112,1.0112,1.0112,1.0111,1.0025,1.0041,1.0047,1.0063,1.0069,1.0078,1.0092,1.0092,1.0107,1.0121,1.0116,1.0136,1.0142,1.0158,1.0163,1.0178,1.0168,1.0176,1.0178,1.018,1.0182,1.012,1.018,1.018,1.018,1.018,1.018,0,1.009,1.0092,1.0107,1.0119,1.0131,1.0119,1.0128,1.0139,1.0156,1.0163,1.0175,1.0194,1.0209,1.021,1.0224,1.0235,1.023,1.0239,1.0237,1.0238,1.0191,1.0184,1.0242,1.0242,1.0242,1.0242,1.0242,1.0242,1.0124,1.015,1.0148,1.0176,1.0178,1.0197,1.0202,1.021,1.0215,1.0236,1.0248,1.0248,1.0252,1.0266,1.0278,1.0278,1.0283,1.0293,1.0291,1.0247,1.0241,1.0235,1.0228,1.0295,1.0295,1.0336,1.0336,1.0336]}]]